Flag for Canada Weather past 2 weeks in Calgary, Alberta, Canada

Now
54 °F

Passing clouds.


Feels Like: 50 °F
Forecast: 37 / 51 °F
Wind: 13 mph from Northwest

Location: Calgary International

Current Time: Apr 17, 2015 at 9:35:11 PM

Latest Report: Apr 17, 2015 at 9:00 PM


Visibility: 15 mi

Pressure: 30.00 "Hg

Humidity: 28%

Dew point: 21 °F

Location of CalgaryLocation

Historic Weather in Calgary — Graph

°F

Calgary temperature yesterday

Maximum temperature yesterday: 64 °F (at 2:00 PM)
Minimum temperature yesterday: 39 °F (at 4:00 AM)
Average temperature yesterday: 53 °F

Past Weeks' High & Low Weather Summary

 TemperatureHumidityPressure
High70 °F (Apr 17, 3:00 PM)93% (Apr 2, 11:00 PM)30.30 "Hg (Apr 2, 11:00 PM)
Low18 °F (Apr 7, 5:00 AM)10% (Apr 8, 4:00 PM)29.33 "Hg (Apr 11, 12:00 PM)
Average39 °F51%29.98 "Hg
* Reported Apr 2 8:00 PM — Apr 17 8:00 PM, Calgary, Weather by CustomWeather, © 2015

Note: Actual official high and low records may vary slightly from our data, if they occured in-between our weather recording intervals... More about our weather records

Advertising

Calgary weather history for previous 24 hours

 ConditionsComfort  
Time TempWeatherWind HumidityBarometerVisibility
8:00 PM
Fri, Apr 17
59 °FPassing clouds.12 mph23%29.97 "Hg30 mi
7:00 PM63 °FPartly sunny.20 mph19%29.96 "Hg40 mi
6:00 PM63 °FBroken clouds.24 mph24%29.97 "Hg40 mi
5:00 PM66 °FBroken clouds.29 mph19%29.95 "Hg40 mi
4:00 PM68 °FScattered clouds.14 mph18%29.94 "Hg40 mi
3:00 PM70 °FPartly sunny.12 mph21%29.95 "Hg40 mi
2:00 PM66 °FPartly sunny.15 mph24%29.98 "Hg40 mi
1:00 PM61 °FPartly sunny.23 mph27%30.03 "Hg40 mi
12:00 PM57 °FPartly sunny.24 mph31%30.07 "Hg40 mi
11:00 AM54 °FPartly sunny.21 mph35%30.10 "Hg40 mi
10:00 AM50 °FScattered clouds.25 mph35%30.15 "Hg40 mi
9:00 AM45 °FScattered clouds.20 mph53%30.21 "Hg40 mi
8:00 AM41 °FScattered clouds.8 mph61%30.24 "Hg40 mi
7:00 AM36 °FPassing clouds.3 mph70%30.27 "Hg40 mi
6:00 AM36 °FPassing clouds.7 mph70%30.29 "Hg15 mi
5:00 AM34 °FPassing clouds.5 mph70%30.30 "Hg15 mi
4:00 AM34 °FClear.2 mph70%30.29 "Hg15 mi
3:00 AM36 °FClear.7 mph65%30.29 "Hg15 mi
2:00 AM43 °FClear.12 mph49%30.25 "Hg15 mi
1:00 AM39 °FClear.8 mph52%30.23 "Hg15 mi
12:00 AM46 °FClear.9 mph40%30.20 "Hg15 mi
11:00 PM
Thu, Apr 16
54 °FClear.16 mph28%30.17 "Hg15 mi
10:00 PM55 °FClear.18 mph26%30.15 "Hg15 mi
9:00 PM57 °FPassing clouds.14 mph25%30.12 "Hg20 mi
Weather by CustomWeather, © 2015

See weather overviewHow to use our weather pages